This demonstration page uses our WeatherBlox Daily Observations layout. Learn more.

Left ArrowRight Arrow

44.8408, -93.29828

Hourly Observations for December 19, 2017

Temp ( °F °C ) Dew Point ( °F °C ) Humidity (%) Winds ( mph kmh ) Pressure ( in mb ) Visibility ( mi km ) Precip ( " mm )
12:53 am 00:53 Cloudy 36 2.2 29 -1.7 76 76 WSW 8 13 29.75 1007 10 16 0.00 0.00
1:53 am 01:53 Cloudy 36 2.2 29 -1.7 76 76 WSW 8 13 29.76 1008 10 16 0.00 0.00
2:53 am 02:53 Cloudy 37 2.8 31 -0.6 79 79 W 10 17 29.79 1009 10 16 0.00 0.00
3:53 am 03:53 Mostly Clear 37 2.8 31 -0.6 79 79 WSW 8 13 29.82 1010 10 16 0.00 0.00
4:53 am 04:53 Clear 36 2.2 30 -1.1 79 79 WNW 12 19 29.86 1011 10 16 0.00 0.00
5:53 am 05:53 Clear 34 1.1 30 -1.1 85 85 W 8 13 29.88 1012 10 16 0.00 0.00
6:53 am 06:53 Mostly Clear 33 0.6 29 -1.7 85 85 W 9 15 29.92 1013 10 16 0.00 0.00
7:53 am 07:53 Partly Cloudy 32 0 28 -2.2 85 85 W 10 17 29.94 1014 10 16 0.00 0.00
8:53 am 08:53 Partly Cloudy 33 0.6 27 -2.8 78 78 W 15 24 29.97 1015 10 16 0.00 0.00
9:53 am 09:53 Partly Cloudy 34 1.1 27 -2.8 76 76 W 18 30 30.01 1016 10 16 0.00 0.00
10:53 am 10:53 Partly Cloudy 35 1.7 24 -4.4 64 64 NW 21 33 30.02 1017 10 16 0.00 0.00
11:53 am 11:53 Partly Cloudy 35 1.7 23 -5 61 61 NW 22 35 30.03 1017 10 16 0.00 0.00
12:53 pm 12:53 Mostly Cloudy 35 1.7 21 -6.1 57 57 W 23 37 30.03 1017 10 16 0.00 0.00
1:53 pm 13:53 Mostly Cloudy 34 1.1 20 -6.7 56 56 NW 24 39 30.04 1017 10 16 0.00 0.00
2:53 pm 14:53 Mostly Cloudy 34 1.1 19 -7.2 54 54 WNW 18 30 30.05 1018 10 16 0.00 0.00
3:53 pm 15:53 Cloudy 32 0 18 -7.8 56 56 NW 15 24 30.07 1018 10 16 0.00 0.00
4:53 pm 16:53 Mostly Cloudy 30 -1.1 18 -7.8 61 61 WNW 12 19 30.10 1019 10 16 0.00 0.00
5:53 pm 17:53 Cloudy 30 -1.1 17 -8.3 58 58 W 9 15 30.13 1020 10 16 0.00 0.00
6:53 pm 18:53 Mostly Cloudy 28 -2.2 17 -8.3 63 63 WNW 10 17 30.14 1021 10 16 0.00 0.00
7:53 pm 19:53 Cloudy 27 -2.8 16 -8.9 63 63 NW 12 19 30.15 1021 10 16 0.00 0.00
8:53 pm 20:53 Cloudy 26 -3.3 16 -8.9 66 66 WNW 8 13 30.17 1022 10 16 0.00 0.00
9:53 pm 21:53 Mostly Cloudy 25 -3.9 16 -8.9 69 69 WNW 8 13 30.19 1023 10 16 0.00 0.00
10:53 pm 22:53 Mostly Cloudy 24 -4.4 15 -9.4 68 68 NW 8 13 30.21 1023 10 16 0.00 0.00
11:53 pm 23:53 Cloudy 24 -4.4 15 -9.4 68 68 NNW 7 11 30.22 1023 10 16 0.00 0.00

Powered by AerisWeather